DW3478 Weather Reports


Display with metric or nautical units.
time (UTC)temp
F
wind
direction
speed
MPH
gust
MPH
rain 1hr
in
rain 24hr
in
rain mn
in
humidity
%
barometer
mb
20260905065805 66 35 2.0 3.0 0.00 0.00 0.00 88 1020.0
20260905064805 66 31 2.0 3.0 0.00 0.00 0.00 88 1020.0
20260905062805 66 26 2.0 3.0 0.00 0.00 0.00 88 1019.0
20260905061304 66 32 2.0 3.0 0.00 0.00 0.00 88 1019.0
20260905060805 66 34 2.0 3.0 0.00 0.00 0.00 88 1019.0
20260905054305 66 33 2.0 3.0 0.00 0.00 0.00 87 1019.0
20260905053805 66 28 2.0 3.0 0.00 0.00 0.00 87 1019.0
20260905052805 66 29 2.0 3.0 0.00 0.00 0.00 87 1019.0
20260905052306 66 18 2.0 3.0 0.00 0.00 0.00 87 1019.0
20260905051805 66 22 2.0 3.0 0.00 0.00 0.00 87 1019.0
20260905051305 66 26 2.0 3.0 0.00 0.00 0.00 87 1019.0
20260905044805 66 19 2.0 3.0 0.00 0.00 0.00 87 1019.0
20260905044304 66 21 2.0 3.0 0.00 0.00 0.00 87 1019.0
20260905043805 66 23 2.0 3.0 0.00 0.00 0.00 87 1020.0
20260905042805 66 33 1.0 3.0 0.00 0.00 0.00 86 1020.0
20260905042307 66 33 1.0 3.0 0.00 0.00 0.00 86 1020.0
20260905040305 67 31 2.0 3.0 0.00 0.00 0.00 86 1020.0
20260905035805 66 17 1.0 2.0 0.00 0.00 0.00 86 1020.0
20260905033305 66 24 1.0 2.0 0.00 0.00 0.00 85 1020.0
20260905031805 67 14 1.0 2.0 0.00 0.00 0.00 84 1020.0
20260905031304 67 14 1.0 1.0 0.00 0.00 0.00 84 1020.0
20260905030304 67 12 0.0 2.0 0.00 0.00 0.00 84 1020.0
20260905025804 67 24 1.0 2.0 0.00 0.00 0.00 84 1020.0
20260905024804 67 32 1.0 2.0 0.00 0.00 0.00 84 1020.0
20260905024305 67 30 1.0 3.0 0.00 0.00 0.00 84 1020.0
20260905023806 67 21 1.0 3.0 0.00 0.00 0.00 83 1021.0
20260905021304 69 1 0.0 1.0 0.00 0.00 0.00 82 1021.0
20260905020805 69 8 0.0 0.0 0.00 0.00 0.00 82 1021.0
20260905015306 69 20 0.0 1.0 0.00 0.00 0.00 82 1021.0
20260905014804 69 45 0.0 1.0 0.00 0.00 0.00 82 1021.0
20260905014305 69 32 0.0 1.0 0.00 0.00 0.00 82 1021.0
20260905013805 69 33 0.0 2.0 0.00 0.00 0.00 82 1021.0
20260905010805 70 16 0.0 2.0 0.00 0.00 0.00 83 1021.0
20260905010305 70 92 0.0 1.0 0.00 0.00 0.00 83 1021.0
20260905005805 70 41 1.0 3.0 0.00 0.00 0.00 83 1021.0
20260905005306 70 37 0.0 1.0 0.00 0.00 0.00 83 1021.0
20260905004805 70 65 0.0 1.0 0.00 0.00 0.00 83 1021.0
20260905002805 70 98 0.0 1.0 0.00 0.00 0.00 84 1021.0
20260905002306 70 86 0.0 3.0 0.00 0.00 0.00 84 1021.0
20260905001804 70 82 0.0 1.0 0.00 0.00 0.00 84 1021.0
20260905001305 70 93 0.0 1.0 0.00 0.00 0.00 84 1021.0
20260905000305 70 92 0.0 1.0 0.00 0.00 0.00 84 1021.0
20260904234305 70 52 0.0 2.0 0.00 0.00 0.00 85 1021.0
20260904233804 69 38 0.0 1.0 0.00 0.00 0.00 85 1021.0
20260904233304 69 5 0.0 3.0 0.00 0.00 0.00 85 1021.0
20260904232805 69 23 1.0 3.0 0.00 0.00 0.00 85 1021.0
20260904232306 69 22 0.0 2.0 0.00 0.00 0.00 85 1021.0
20260904231305 69 9 0.0 3.0 0.00 0.00 0.00 85 1021.0
20260904225805 69 0 0.0 3.0 0.00 0.00 0.00 85 1021.0
20260904225306 69 340 1.0 3.0 0.00 0.00 0.00 86 1021.0
20260904224805 69 72 0.0 2.0 0.00 0.00 0.00 86 1021.0
20260904224305 69 354 0.0 3.0 0.00 0.00 0.00 86 1021.0
20260904223305 69 339 0.0 3.0 0.00 0.00 0.00 86 1022.0
20260904220804 69 333 0.0 1.0 0.00 0.00 0.00 86 1021.0
20260904220304 69 334 0.0 1.0 0.00 0.00 0.00 85 1021.0
20260904215805 69 4 0.0 1.0 0.00 0.00 0.00 85 1021.0
20260904214804 69 23 0.0 0.0 0.00 0.00 0.00 85 1021.0
20260904213304 69 30 1.0 2.0 0.00 0.00 0.00 85 1021.0
20260904212805 69 31 0.0 1.0 0.00 0.00 0.00 85 1021.0
20260904212306 69 107 0.0 1.0 0.00 0.00 0.00 84 1021.0
20260904211805 69 109 0.0 3.0 0.00 0.00 0.00 84 1021.0
20260904211304 70 77 1.0 3.0 0.00 0.00 0.00 84 1021.0
20260904210804 70 87 1.0 2.0 0.00 0.00 0.00 83 1021.0
20260904210304 70 82 0.0 2.0 0.00 0.00 0.00 83 1021.0
20260904204304 70 31 1.0 3.0 0.00 0.00 0.00 82 1021.0
20260904203805 70 68 0.0 1.0 0.00 0.00 0.00 81 1020.0
20260904201805 71 107 0.0 0.0 0.00 0.00 0.00 80 1020.0
20260904201305 71 107 0.0 0.0 0.00 0.00 0.00 80 1020.0
20260904200305 71 107 0.0 0.0 0.00 0.00 0.00 80 1020.0
20260904195804 71 107 0.0 0.0 0.00 0.00 0.00 80 1020.0
20260904195306 71 107 0.0 1.0 0.00 0.00 0.00 79 1020.0
20260904194806 71 107 1.0 2.0 0.00 0.00 0.00 79 1020.0
20260904194305 72 107 0.0 2.0 0.00 0.00 0.00 79 1020.0
20260904191305 73 179 1.0 3.0 0.00 0.00 0.00 78 1020.0
20260904190304 73 140 1.0 3.0 0.00 0.00 0.00 77 1020.0
20260904185805 73 223 2.0 3.0 0.00 0.00 0.00 77 1020.0
20260904185306 73 245 4.0 6.0 0.00 0.00 0.00 76 1020.0
20260904183304 74 231 2.0 5.0 0.00 0.00 0.00 76 1020.0
20260904182805 74 232 1.0 3.0 0.00 0.00 0.00 76 1020.0
20260904181304 74 261 3.0 5.0 0.00 0.00 0.00 75 1020.0
20260904180305 74 276 4.0 6.0 0.00 0.00 0.00 76 1020.0
20260904175306 74 257 5.0 10.0 0.00 0.00 0.00 76 1020.0
20260904174805 75 252 3.0 6.0 0.00 0.00 0.00 76 1020.0
20260904171805 73 264 2.0 5.0 0.00 0.00 0.00 79 1020.0
20260904170304 73 275 3.0 5.0 0.00 0.00 0.00 78 1020.0
20260904165804 73 256 3.0 5.0 0.00 0.00 0.00 77 1020.0
20260904165305 73 242 2.0 3.0 0.00 0.00 0.00 77 1020.0
20260904164805 73 242 3.0 5.0 0.00 0.00 0.00 78 1020.0
20260904163304 73 211 2.0 5.0 0.00 0.00 0.00 78 1020.0
20260904162804 73 224 2.0 3.0 0.00 0.00 0.00 77 1020.0
20260904162306 73 212 3.0 5.0 0.00 0.00 0.00 77 1020.0
20260904155804 74 239 3.0 5.0 0.00 0.00 0.00 76 1021.0
20260904155306 74 146 3.0 6.0 0.00 0.00 0.00 77 1021.0
20260904153804 74 201 3.0 5.0 0.00 0.00 0.00 76 1021.0
20260904153304 74 125 3.0 5.0 0.00 0.00 0.00 76 1021.0
20260904152805 74 133 4.0 6.0 0.00 0.00 0.00 76 1021.0
20260904152306 74 137 5.0 6.0 0.00 0.00 0.00 75 1021.0
20260904151806 75 145 3.0 7.0 0.00 0.00 0.00 75 1021.0
20260904150805 75 192 5.0 7.0 0.00 0.00 0.00 74 1021.0
20260904150306 74 213 5.0 7.0 0.00 0.00 0.00 74 1021.0
20260904145306 76 172 3.0 7.0 0.00 0.00 0.00 72 1021.0
20260904144805 75 193 5.0 9.0 0.00 0.00 0.00 72 1021.0
20260904143805 75 231 5.0 10.0 0.00 0.00 0.00 72 1021.0
20260904143305 77 200 6.0 10.0 0.00 0.00 0.00 70 1021.0
20260904142805 75 197 6.0 12.0 0.00 0.00 0.00 72 1021.0
20260904142306 77 191 5.0 10.0 0.00 0.00 0.00 70 1021.0
20260904140306 76 209 5.0 9.0 0.00 0.00 0.00 69 1021.0
20260904134306 77 198 5.0 9.0 0.00 0.00 0.00 68 1021.0
20260904131305 76 221 4.0 7.0 0.00 0.00 0.00 71 1021.0
20260904125306 77 265 5.0 9.0 0.00 0.00 0.00 70 1021.0
20260904124806 76 251 4.0 9.0 0.00 0.00 0.00 70 1021.0
20260904124306 76 250 5.0 7.0 0.00 0.00 0.00 72 1021.0
20260904123305 76 246 4.0 9.0 0.00 0.00 0.00 71 1022.0
20260904122805 76 259 5.0 7.0 0.00 0.00 0.00 71 1022.0
20260904122307 75 237 5.0 7.0 0.00 0.00 0.00 72 1022.0
20260904115805 75 238 5.0 9.0 0.00 0.00 0.00 72 1022.0
20260904115307 77 238 5.0 9.0 0.00 0.00 0.00 70 1022.0
20260904112806 74 250 3.0 7.0 0.00 0.00 0.00 72 1022.0
20260904112306 76 255 3.0 6.0 0.00 0.00 0.00 72 1022.0
20260904111805 75 242 4.0 6.0 0.00 0.00 0.00 72 1022.0
20260904111306 75 201 4.0 8.0 0.00 0.00 0.00 73 1022.0
20260904101805 74 182 3.0 6.0 0.00 0.00 0.00 74 1022.0
20260904101306 74 149 5.0 9.0 0.00 0.00 0.00 76 1022.0
20260904100805 73 180 5.0 9.0 0.00 0.00 0.00 75 1021.0
20260904095805 73 98 6.0 9.0 0.00 0.00 0.00 75 1021.0
20260904094805 74 134 5.0 9.0 0.00 0.00 0.00 75 1021.0
20260904094305 73 169 5.0 10.0 0.00 0.00 0.00 75 1021.0
20260904093805 74 163 4.0 10.0 0.00 0.00 0.00 74 1021.0
20260904093305 74 170 5.0 7.0 0.00 0.00 0.00 74 1021.0
20260904092805 73 92 5.0 9.0 0.00 0.00 0.00 75 1021.0
20260904092306 73 120 5.0 9.0 0.00 0.00 0.00 76 1021.0
20260904085805 73 155 5.0 9.0 0.00 0.00 0.00 76 1021.0
20260904085306 72 111 5.0 9.0 0.00 0.00 0.00 76 1021.0
20260904083805 72 120 3.0 6.0 0.00 0.00 0.00 75 1021.0
20260904082805 72 41 5.0 8.0 0.00 0.00 0.00 75 1021.0
20260904082306 72 88 5.0 7.0 0.00 0.00 0.00 75 1021.0
20260904074305 68 56 2.0 6.0 0.00 0.00 0.00 79 1021.0
20260904072306 67 44 2.0 3.0 0.00 0.00 0.00 81 1021.0